Regional Weather Roundup
Issued by NWS Newport/Morehead, NC

Current Version | Previous Version | Text Only | Print | Product List | Glossary Off
Versions: 1 2 3 4 5 6 7 8 9 10 11 12 13 14 15 16 17 18 19 20 21 22 23 24 25 26 27 28 29 30 31 32 33 34 35 36 37 38 39 40 41 42 43 44 45 46 47 48 49 50
000 ASUS42 KMHX 111413 RWRMHX WEATHER ROUNDUP FOR EASTERN NORTH CAROLINA NATIONAL WEATHER SERVICE NEWPORT/MOREHEAD CITY NC 900 AM EST THU FEB 11 2016 NOTE: "FAIR" INDICATES FEW OR NO CLOUDS BELOW 12,000 FEET WITH NO SIGNIFICANT WEATHER AND/OR OBSTRUCTIONS TO VISIBILITY NCZ015>017-031-032-045>047-102-103-111500- NORTH COAST CITY SKY/WX TMP DP RH WIND PRES REMARKS EDENTON SUNNY 29 9 41 NW10G21 30.19S ELIZABETH CITY SUNNY 27 8 44 W20G28 30.18R WCI 13 KITTY HAWK SUNNY 29 11 45 W13G25 30.14S WCI 19 MANTEO SUNNY 29 12 49 NW16G22 30.16F WCI 17 $$ NCZ045>047-081-094-103-104-111500- CENTRAL COAST CITY SKY/WX TMP DP RH WIND PRES REMARKS FRISCO SUNNY 31 12 45 NW16G28 30.16R WCI 20 SWANQUARTER N/A 30 N/A N/A NW18 30.15S WCI 18 $$ NCZ095-097-098-100-101-111500- SOUTHERN COAST CITY SKY/WX TMP DP RH WIND PRES REMARKS BEAUFORT SUNNY 32 11 41 NW16 30.19R CEDAR ISLAND N/A N/A N/A N/A NW18G33 30.21S JACKSONVILLE SUNNY 30 7 37 NW13 30.22R WCI 20 PINEY ISLAND SUNNY N/A N/A N/A NW22G28 30.18R WILMINGTON SUNNY 32 9 38 NW8 30.24R $$ NCZ011>013-027>030-043-044-078>080-089-090>093-098-111500- COASTAL PLAIN CITY SKY/WX TMP DP RH WIND PRES REMARKS AHOSKIE SUNNY 26 7 44 CALM 30.20R CLINTON SUNNY 28 9 44 NW8 30.23R ELIZABETHTOWN SUNNY 29 12 50 NW3 30.24R GOLDSBORO SUNNY 28 5 37 NW14 30.20R WCI 17 GREENVILLE SUNNY 28 9 43 NW7 30.21R HAVELOCK SUNNY 31 8 38 NW16 30.20R WCI 20 KENANSVILLE SUNNY 28 8 43 NW9 30.23R KINSTON SUNNY 28 9 43 NW9 30.22R NEW BERN MOSUNNY 30 8 39 NW15G21 30.21R WCI 19 RICHLANDS SUNNY 28 7 40 NW6 30.22R ROCKY MOUNT SUNNY 27 7 42 W8 30.21R WASHINGTON SUNNY 28 6 39 NW8 30.20R WHITEVILLE SUNNY 31 17 56 W3 30.24R $$ AMZ130-135-150-152-154-156-158-170-250-252-270-ANZ085-086-088-633-658-670-111500- MARINE OBSERVATIONS STATION/POSITION TIME TEMP WIND PRES WAVE SWELL AIR SEA DIR/SP/G HT/PER HT/PER (UTC) (F) (DEG/KT/KT) (MB) (FT/S) (FT/S) CHESAPEAKE LIGHT NOT AVBL 64 E VA BEACH NOT AVBL DUCK 1300 27 280/ 15/ 20 1020.5 2 E DUCK 1311 44 N/A 3/13 2/13 OREGON INLET 1300 28 41 290/ 14/ 19 1020.9 13E OREGON INLT 1300 47 N/A 6/ 6 2/13 HATTERAS CG 1300 30 46 300/ 22/ 27 1020.6 DIAMOND BUOY NOT AVBL CAPE LOOKOUT NOT AVBL BEAUFORT LAB 1300 29 44 340/ 12/ 17 1020.5 30 SE NEW RVR IN 1308 36 59 1021.7 30 SE NEW RVR IN 1325 59 N/A 7/ 8 2/11 27 SE WRIGHTSVLE 1308 37 61 360/ 14/ 23 1020.9 5 SE WRIGHTSVLE 1308 33 51 340/ 14/ 17 1023.1 225 S CAPE HAT NOT AVBL 41 SE CHARLESTON NOT AVBL $$

USA.gov is the U.S. government's official web portal to all federal, state and local government web resources and services.